Philip, SD

10:34 AM MDT on April 28, 2017 (GMT -0600)
Philip

Weather History for KPHP - January, 2013

Change the Weather History Date:

Sunday, January 13, 2013

  Actual Average Record
Temperature  
Mean Temperature 12 °F 22 °F  
Max Temperature 19 °F 34 °F 70 °F (1987)
Min Temperature 4 °F 9 °F -22 °F (1979)
Degree Days  
Heating Degree Days 53 43  
Month to date heating degree days 505 566  
Since 1 July heating degree days 3269 3501  
Cooling Degree Days 0 0  
Month to date cooling degree days 0 0  
Year to date cooling degree days 0 0  
Moisture  
Dew Point 4 °F    
Average Humidity 73    
Maximum Humidity 83    
Minimum Humidity 62    
Precipitation  
Precipitation T in 0.01 in 0.07 in (2002)
Month to date precipitation 0.30 0.13  
Year to date precipitation 0.30 0.13  
Sea Level Pressure  
Sea Level Pressure 30.28 in    
Wind  
Wind Speed 8 mph (West)    
Max Wind Speed 17 mph    
Max Gust Speed 21 mph    
Visibility 10 miles    
Events      
T = Trace of Precipitation, MM = Missing Value Source: NWS Daily Summary

Daily Weather History Graph

Daily Weather History Graph

Search for Another Location

Airport or City:

Trip Planner

Search our weather history database for the weather conditions in past years. The results will help you decide how hot, cold, wet, or windy it might be!

Date:

Astronomy

Jan. 13, 2013 Rise Set
Actual Time 7:18 AM MST 4:32 PM MST
Civil Twilight 6:46 AM MST 5:04 PM MST
Nautical Twilight 6:10 AM MST 5:40 PM MST
Astronomical Twilight 5:36 AM MST 6:14 PM MST
Moon 8:12 AM MST (1/13) 7:19 PM MST (1/13)
Length of Visible Light 10h 17m
Length of Day
9h 13m
Waxing Crescent, 5% of the Moon is Illuminated
Jan 13
Waxing Crescent
Jan 18
First Quarter
Jan 26
Full
Feb 3
Last Quarter
Feb 10
New

Hourly Weather History & Observations

Time (MST) Temp. Windchill Dew Point Humidity Pressure Visibility Wind Dir Wind Speed Gust Speed Precip Events Conditions
12:55 AM 5.0 °F -6.9 °F -0.9 °F 76% 30.29 in 10.0 mi WNW 6.9 mph - N/A   Mostly Cloudy
1:55 AM 6.1 °F -6.8 °F -0.9 °F 73% 30.30 in 10.0 mi WNW 8.1 mph - N/A   Overcast
2:55 AM 7.0 °F -4.5 °F -0.0 °F 73% 30.29 in 10.0 mi West 6.9 mph - N/A   Overcast
3:55 AM 5.0 °F -4.1 °F -0.0 °F 80% 30.27 in 10.0 mi WSW 4.6 mph - N/A   Overcast
4:55 AM 6.1 °F -2.8 °F -0.0 °F 76% 30.27 in 10.0 mi West 4.6 mph - N/A   Overcast
5:55 AM 5.0 °F -4.1 °F -0.9 °F 76% 30.27 in 10.0 mi WSW 4.6 mph - N/A   Overcast
6:55 AM 6.1 °F -0.9 °F -0.9 °F 73% 30.29 in 10.0 mi West 3.5 mph - N/A   Overcast
7:55 AM 6.1 °F -5.6 °F -0.0 °F 76% 30.31 in 10.0 mi West 6.9 mph - N/A   Overcast
8:55 AM 9.0 °F -0.9 °F 1.9 °F 73% 30.31 in 10.0 mi WSW 5.8 mph - N/A   Overcast
9:55 AM 12.0 °F 0.5 °F 5.0 °F 73% 30.31 in 10.0 mi West 8.1 mph - N/A   Overcast
10:55 AM 15.1 °F 1.8 °F 8.1 °F 74% 30.29 in 10.0 mi West 11.5 mph - 0.00 in   Overcast
11:55 AM 16.0 °F 2.3 °F 9.0 °F 74% 30.27 in 10.0 mi WNW 12.7 mph - 0.00 in   Overcast
12:27 PM 17.6 °F 3.2 °F 8.6 °F 68% 30.14 in 10.0 mi WNW 15.0 mph - N/A   Overcast
12:35 PM 17.6 °F 2.7 °F 8.6 °F 68% 30.13 in 10.0 mi West 16.1 mph - N/A   Overcast
12:55 PM 17.1 °F 2.5 °F 9.0 °F 71% 30.25 in 10.0 mi WNW 15.0 mph - N/A   Mostly Cloudy
1:55 PM 19.0 °F 6.8 °F 10.0 °F 68% 30.24 in 10.0 mi WNW 11.5 mph - N/A   Mostly Cloudy
2:55 PM 17.1 °F 5.0 °F 10.0 °F 74% 30.26 in 10.0 mi WSW 10.4 mph - N/A   Overcast
3:55 PM 19.0 °F 9.0 °F 9.0 °F 65% 30.27 in 10.0 mi WNW 8.1 mph - N/A   Overcast
4:55 PM 14.0 °F 3.9 °F 7.0 °F 74% 30.28 in 10.0 mi WNW 6.9 mph - N/A   Mostly Cloudy
5:55 PM 9.0 °F -2.2 °F 3.0 °F 77% 30.30 in 10.0 mi WNW 6.9 mph - N/A   Partly Cloudy
6:55 PM 8.1 °F -3.2 °F 3.0 °F 80% 30.31 in 10.0 mi West 6.9 mph - N/A   Overcast
7:55 PM 10.0 °F -0.9 °F 3.9 °F 76% 30.31 in 10.0 mi West 6.9 mph - N/A   Overcast
8:55 PM 10.0 °F 1.8 °F 3.9 °F 76% 30.31 in 10.0 mi WSW 4.6 mph - N/A   Overcast
9:55 PM 10.9 °F 1.4 °F 3.9 °F 73% 30.31 in 10.0 mi NW 5.8 mph - N/A   Overcast
10:55 PM 10.9 °F 1.4 °F 3.9 °F 73% 30.31 in 10.0 mi West 5.8 mph - N/A   Overcast
11:55 PM 12.0 °F -0.4 °F 5.0 °F 73% 30.31 in 10.0 mi West 9.2 mph - N/A   Overcast